DateTimeUTC,F1_A11,F1_S11,BsB_S11,BsG_S11,BsR_S11,BbsB_S11,BbsG_S11,BbsR_S11,BaB_A11,BaG_A11,BaR_A11,Tu_S11,T_S11,Uu_S11,U_S11,P_S11,T1_A11
2021-03-14T11:00:00Z,00000200,21000000,,,,,,,0000.30,0000.31,0000.12,16.4,23.9,,00.0,0640.3,30.9
2021-03-14T11:01:00Z,00000200,21000000,,,,,,,0000.01,-000.34,-000.38,16.4,23.9,,00.0,0640.3,30.9
2021-03-14T11:02:00Z,00000200,21000000,,,,,,,-000.39,0000.06,-000.00,16.4,24.0,,00.0,0640.3,30.9
2021-03-14T11:03:00Z,00000200,61000000,,,,,,,0000.54,-000.11,0000.25,16.4,24.0,,00.0,0640.3,30.8
2021-03-14T11:04:00Z,00000200,41000000,0000.07,0000.24,0000.02,0000.22,-000.03,0000.06,0000.08,0000.31,0000.35,16.5,23.8,,00.0,0641.2,30.8
2021-03-14T11:05:00Z,00000200,01000000,0000.32,0000.03,-000.07,0000.14,0000.03,-000.04,0000.22,0000.52,-000.04,16.5,23.7,,00.0,0641.3,30.8
2021-03-14T11:06:00Z,00000200,01000000,0000.42,-000.06,0000.29,-000.51,-000.10,0000.32,0000.66,0000.35,-000.03,16.4,23.6,,00.0,0641.4,30.8
2021-03-14T11:07:00Z,00000200,01000000,0000.55,-000.12,-000.23,-000.14,0000.00,0000.23,0000.19,-000.16,0000.91,16.3,23.6,,00.0,0641.4,30.8
2021-03-14T11:08:00Z,00000200,01000000,0000.62,0000.12,-000.16,0000.28,-000.39,-000.31,0000.34,0000.63,-000.27,16.3,23.6,,00.0,0641.4,30.8
2021-03-14T11:09:00Z,00000200,01000000,0000.06,0000.25,0000.09,0000.02,-000.17,-000.01,0000.18,0000.06,0000.05,16.2,23.5,,00.0,0641.4,30.8
2021-03-14T11:10:00Z,00000200,01000000,0000.18,0000.38,0000.08,-000.05,0000.04,0000.17,-000.24,0000.31,0000.11,16.2,23.5,,00.0,0641.4,30.8
2021-03-14T11:11:00Z,00000200,01000000,0000.65,0000.05,0000.16,0000.09,-000.04,-000.18,0000.25,-000.45,-000.31,16.1,23.5,,00.0,0641.4,30.8
2021-03-14T11:12:00Z,00000200,01000000,0000.52,0000.31,0000.19,0000.21,-000.01,-000.02,0000.35,0000.48,0000.62,16.1,23.4,,00.0,0641.4,30.8
2021-03-14T11:13:00Z,00000200,01000000,0000.23,0000.20,0000.12,0000.30,0000.02,-000.00,0000.01,-000.10,-000.12,16.2,23.4,,00.0,0641.4,30.8
2021-03-14T11:14:00Z,00000200,01000000,0000.31,0000.27,0000.17,0000.26,-000.03,-000.06,-000.18,0000.11,-000.16,16.3,23.4,,00.0,0641.4,30.8
2021-03-14T11:15:00Z,00000200,01000000,0000.41,0000.21,0000.17,-000.03,-000.12,-000.26,-000.04,0000.28,0000.46,16.3,23.4,,00.0,0641.4,30.8
2021-03-14T11:16:00Z,00000200,01000000,0000.44,0000.21,-000.08,0000.11,-000.21,-000.05,0000.22,0000.03,-000.18,16.4,23.5,,00.0,0641.4,30.8
2021-03-14T11:17:00Z,00000200,01000000,-000.31,0000.07,-000.13,0000.31,-000.01,-000.08,-000.23,-000.46,0000.08,16.4,23.5,,00.0,0641.4,30.8
2021-03-14T11:18:00Z,00000200,01000000,0000.40,0000.02,0000.19,0000.18,0000.01,-000.03,-000.06,0000.36,-000.02,16.5,23.5,,00.0,0641.4,30.8
2021-03-14T11:19:00Z,00000200,01000000,0000.89,0000.09,0000.12,0000.04,0000.15,0000.14,0000.55,0000.21,0000.46,16.5,23.5,,00.0,0641.5,30.9
2021-03-14T11:20:00Z,00000200,01000000,0000.27,0000.15,-000.00,-000.22,-000.19,-000.01,0000.35,0000.26,0000.21,16.6,23.6,,00.0,0641.5,30.9
2021-03-14T11:21:00Z,00000200,01000000,0000.19,0000.01,0000.16,0000.67,0000.20,-000.12,0000.04,0000.16,-000.02,16.6,23.6,,00.0,0641.5,30.9
2021-03-14T11:22:00Z,00000200,01000000,-000.45,0000.06,0000.00,-000.31,0000.09,0000.05,0000.33,0000.22,0000.11,16.6,23.6,,00.0,0641.5,30.9
2021-03-14T11:23:00Z,00000200,01000000,0000.69,0000.25,-000.04,0000.01,0000.08,0000.05,0000.23,0000.36,0000.34,16.6,23.6,,00.0,0641.4,30.9
2021-03-14T11:24:00Z,00000200,01000000,0000.08,0000.28,0000.27,-000.22,-000.00,-000.05,0000.08,0000.01,-000.22,16.5,23.5,,00.0,0641.4,30.8
2021-03-14T11:25:00Z,00000200,01000000,0000.19,0000.23,0000.10,-000.09,0000.12,0000.20,0000.02,-000.03,0000.20,16.5,23.5,,00.0,0641.4,30.8
2021-03-14T11:26:00Z,00000200,01000000,0000.31,0000.27,0000.12,0000.25,-000.08,0000.38,0000.10,0000.03,-000.14,16.4,23.5,,00.0,0641.4,30.8
2021-03-14T11:27:00Z,00000200,01000000,0000.08,0000.21,0000.09,-000.26,0000.12,0000.16,0000.17,0000.55,0000.64,16.4,23.4,,00.0,0641.4,30.8
2021-03-14T11:28:00Z,00000200,01000000,-000.04,0000.12,0000.01,0000.00,0000.08,0000.10,0000.29,0000.11,-000.13,16.4,23.4,,00.0,0641.4,30.8
2021-03-14T11:29:00Z,00000200,01000000,-000.07,0000.12,-000.04,0000.06,0000.07,-000.02,0000.01,-000.33,-000.17,16.5,23.5,,00.0,0641.4,30.9
2021-03-14T11:30:00Z,00000200,01000000,0000.48,-000.09,0000.19,-000.09,-000.03,0000.04,0000.14,0000.26,0000.24,16.6,23.5,,00.0,0641.4,30.9
2021-03-14T11:31:00Z,00000200,01000000,0000.46,0000.26,0000.19,-000.13,-000.09,0000.12,0000.26,0000.39,0000.08,16.6,23.5,,00.0,0641.5,30.9
2021-03-14T11:32:00Z,00000200,01000000,0000.72,-000.06,-000.01,0000.21,0000.07,0000.07,-000.12,-000.13,0000.10,16.7,23.6,,00.0,0641.5,30.9
2021-03-14T11:33:00Z,00000200,01000000,0000.45,0000.12,0000.06,0000.18,0000.00,-000.07,0000.06,-000.10,0000.16,16.8,23.6,,00.0,0641.5,30.9
2021-03-14T11:34:00Z,00000200,01000000,-000.02,0000.04,-000.11,-000.08,-000.07,0000.23,-000.05,-000.01,-000.19,16.8,23.6,,00.0,0641.5,30.9
2021-03-14T11:35:00Z,00000200,01000000,-000.22,0000.17,0000.15,-000.18,0000.18,0000.17,0000.03,0000.11,-000.32,16.8,23.6,,00.0,0641.5,30.9
2021-03-14T11:36:00Z,00000200,01000000,-000.29,0000.21,-000.03,0000.20,-000.27,0000.17,-000.33,-000.06,0000.16,16.8,23.6,,00.0,0641.5,30.9
2021-03-14T11:37:00Z,00000200,01000000,0000.23,0000.19,-000.05,0000.03,0000.10,0000.01,0000.13,-000.21,0000.05,16.7,23.6,,00.0,0641.5,30.9
2021-03-14T11:38:00Z,00000200,01000000,0000.07,0000.10,0000.44,0000.42,0000.09,0000.12,-000.36,-000.13,-000.16,16.7,23.6,,00.0,0641.6,30.9
2021-03-14T11:39:00Z,00000200,01000000,0000.73,0000.11,0000.18,-000.41,0000.14,0000.08,0000.18,0000.44,-000.12,16.6,23.6,,00.0,0641.6,30.9
2021-03-14T11:40:00Z,00000200,01000000,0000.67,-000.02,-000.03,0000.15,-000.12,0000.02,0000.33,-000.37,0000.19,16.6,23.6,,00.0,0641.6,30.8
2021-03-14T11:41:00Z,00000200,01000000,-000.24,0000.65,0000.14,0000.32,-000.21,0000.03,-000.10,-000.09,0000.11,16.5,23.5,,00.0,0641.6,30.8
2021-03-14T11:42:00Z,00000200,01000000,0000.05,0000.08,0000.16,0000.06,-000.23,-000.07,0000.42,0000.25,0000.15,16.5,23.5,,00.0,0641.6,30.8
2021-03-14T11:43:00Z,00000200,01000000,0000.55,0000.26,-000.21,0000.07,-000.00,-000.09,0000.27,0000.54,0000.38,16.6,23.5,,00.0,0641.6,30.9
2021-03-14T11:44:00Z,00000200,01000000,0000.49,-000.04,0000.14,-000.45,0000.09,-000.22,0000.31,0000.06,-000.03,16.6,23.5,,00.0,0641.6,30.9
2021-03-14T11:45:00Z,00000200,01000000,-000.02,0000.00,0000.08,-000.06,0000.03,-000.04,0000.13,0000.14,0000.39,16.7,23.6,,00.0,0641.6,30.9
2021-03-14T11:46:00Z,00000200,01000000,0000.48,0000.05,-000.02,0000.06,0000.05,0000.19,0000.30,0000.56,-000.21,16.8,23.6,,00.0,0641.6,30.9
2021-03-14T11:47:00Z,00000200,01000000,-000.05,0000.06,0000.03,0000.00,-000.04,0000.11,-000.09,0000.09,0000.41,16.8,23.6,,00.0,0641.6,30.9
2021-03-14T11:48:00Z,00000200,01000000,-000.26,0000.10,0000.05,0000.41,0000.11,-000.03,-000.04,-000.22,-000.34,16.8,23.7,,00.0,0641.6,30.9
2021-03-14T11:49:00Z,00000200,01000000,-000.31,0000.13,-000.05,-000.04,0000.22,-000.03,-000.19,-000.12,-000.07,16.9,23.7,,00.0,0641.6,30.9
2021-03-14T11:50:00Z,00000200,01000000,0000.25,0000.10,0000.02,0000.15,0000.06,0000.04,-000.07,-000.65,-000.36,16.9,23.7,,00.0,0641.6,30.9
2021-03-14T11:51:00Z,00000200,01000000,0000.21,-000.00,-000.02,-000.18,-000.01,0000.22,-000.00,0000.55,0000.35,16.8,23.7,,00.0,0641.6,30.9
2021-03-14T11:52:00Z,00000200,01000000,0000.33,0000.29,-000.04,-000.06,-000.06,0000.24,0000.23,0000.06,0000.36,16.8,23.7,,00.0,0641.7,30.9
2021-03-14T11:53:00Z,00000200,01000000,0000.35,0000.48,-000.07,0000.08,0000.02,0000.19,0000.35,0000.13,-000.21,16.7,23.6,,00.0,0641.7,30.8
2021-03-14T11:54:00Z,00000200,01000000,0000.58,0000.24,0000.09,-000.19,-000.03,0000.18,-000.03,0000.22,-000.04,16.7,23.6,,00.0,0641.7,30.8
2021-03-14T11:55:00Z,00000200,01000000,0000.44,0000.12,0000.10,-000.08,0000.04,-000.02,-000.25,-000.27,0000.39,16.6,23.6,,00.0,0641.6,30.8
2021-03-14T11:56:00Z,00000200,01000000,0000.47,0000.29,-000.08,-000.26,0000.03,0000.13,-000.15,0000.12,-000.35,16.5,23.6,,00.0,0641.7,30.8
2021-03-14T11:57:00Z,00000200,41000000,,,,,,,-000.08,-000.27,0000.13,16.6,23.6,,00.0,0641.7,30.8
2021-03-14T11:58:00Z,00000200,61000000,,,,,,,-000.01,0000.16,-000.18,16.3,23.7,,00.0,0640.7,30.8
2021-03-14T11:59:00Z,00000200,21000000,,,,,,,-000.01,-000.14,-000.07,16.3,23.8,,00.0,0640.7,30.9
